Theta_e
292 288 287 286 289 291 289 290 291 287 286 285 283 282 283 283 284 285 285 287 286 288 286 289 288 288 290 292 292 290 288 289 290 290 291 292 292 291 292 292 293 293 294 292 293 293 294 294 297 300 302 302 304 304 303 303 302 302 302 301 300 300 300 300 300 300 300 299 298 299 297 295 296 294 295 294 294 294 294 294 295 295 296 296 296 296
291 287 287 290 292 291 291 289 286 286 286 288 285 284 285 283 285 288 290 288 288 288 283 284 285 287 289 291 292 290 287 289 290 291 291 292 292 292 292 292 293 293 289 290 291 291 291 294 297 300 301 302 302 302 302 302 302 302 302 301 300 300 301 300 301 300 300 299 300 298 295 294 294 293 292 291 291 292 292 292 292 292 293 294 294 293
288 288 291 293 289 289 288 288 287 288 288 284 286 284 284 285 284 288 287 286 287 288 287 287 287 289 290 291 292 291 291 293 293 293 295 294 293 293 293 293 292 291 291 291 293 291 292 293 296 299 301 301 301 301 302 302 302 301 301 301 300 300 300 301 300 299 296 295 295 295 294 293 290 291 291 290 290 291 290 290 290 290 291 293 292 291
286 286 292 290 288 290 287 286 286 287 285 286 283 285 285 283 285 284 285 287 289 288 285 283 286 290 290 290 292 293 293 292 292 293 293 294 294 294 294 293 293 292 292 291 291 292 292 293 296 299 300 300 301 301 302 302 301 301 300 300 300 300 300 299 298 296 294 293 292 291 290 290 290 289 290 290 290 290 290 289 289 289 289 290 290 290
289 290 290 290 290 290 288 285 286 285 286 283 286 284 284 285 285 287 286 286 286 287 284 286 288 290 291 291 290 292 290 291 293 293 292 292 292 293 292 291 293 293 293 292 291 291 291 292 296 299 300 301 300 301 301 301 301 301 300 300 300 299 298 297 295 293 292 291 290 290 289 289 289 289 289 289 289 288 289 288 288 287 288 289 289 289
288 289 288 289 288 289 287 285 286 288 286 283 284 288 288 287 287 285 284 287 285 282 284 284 283 280 280 287 290 291 286 288 291 292 293 294 294 290 291 292 292 293 293 293 292 292 292 293 296 300 301 300 300 301 301 300 302 301 300 300 299 298 297 295 293 292 292 292 291 290 289 288 288 287 289 289 288 287 288 286 286 287 287 287 287 287
288 290 290 289 288 287 287 286 285 289 287 285 285 287 290 288 286 286 285 287 280 281 285 284 283 283 284 287 288 287 286 290 293 292 293 293 293 291 292 292 291 292 291 291 292 292 292 293 296 299 301 301 300 301 301 300 300 301 300 299 298 296 295 294 293 293 293 292 292 293 294 293 291 290 287 287 287 287 286 286 286 285 286 286 286 285
289 289 287 288 287 286 285 285 288 289 288 283 285 284 286 286 286 286 285 286 283 281 284 283 280 282 286 286 290 291 290 290 292 295 295 294 293 292 292 291 291 291 292 292 292 292 292 293 296 299 301 302 301 300 300 299 298 300 299 298 297 295 294 293 293 293 293 293 294 294 293 292 291 290 286 285 285 286 286 285 285 284 284 284 283 283
290 287 287 287 286 284 287 288 287 291 288 284 286 284 285 287 285 285 285 282 282 282 282 283 285 284 283 284 285 287 288 289 292 295 296 295 294 292 292 291 291 291 292 292 292 292 292 293 296 299 301 302 301 299 299 298 297 298 298 297 296 295 293 293 293 293 293 294 294 293 291 288 286 285 285 285 286 285 285 284 284 284 283 282 282 281
288 289 291 292 290 287 287 285 289 292 289 287 285 285 284 283 282 281 281 284 281 279 281 283 285 280 286 283 286 284 287 288 291 295 295 295 293 291 291 290 290 289 290 291 292 292 292 293 295 298 301 301 301 299 298 297 297 296 296 296 295 294 293 292 293 293 293 293 292 291 290 287 286 285 284 285 283 283 284 283 282 282 282 281 281 281
289 291 291 291 290 290 287 286 286 290 289 287 286 288 285 282 280 279 280 280 281 277 284 284 285 285 284 284 287 287 288 290 293 291 291 290 290 289 289 289 289 289 289 290 290 291 292 293 295 298 300 301 300 297 296 295 295 295 295 294 294 293 293 293 293 293 292 291 291 291 289 286 285 285 284 283 282 282 281 282 282 281 281 280 280 280
289 289 290 289 290 288 290 288 286 286 287 289 287 283 287 286 279 278 275 276 276 279 283 281 285 286 281 281 283 288 287 287 290 291 291 291 291 290 288 288 288 288 289 289 290 290 291 291 293 297 299 300 299 297 295 294 295 295 294 293 293 292 293 292 292 292 290 290 290 290 288 287 285 284 283 282 281 281 281 281 281 280 280 280 280 280
287 287 286 290 290 292 287 289 288 287 289 288 287 289 283 275 274 274 270 276 275 279 280 279 283 282 284 289 284 287 291 292 290 291 293 292 292 291 288 287 287 287 288 289 290 290 290 292 293 295 298 299 298 296 295 294 294 294 294 293 292 291 292 291 291 290 288 289 289 288 287 286 285 284 284 283 282 282 282 281 281 280 280 280 280 279
285 285 287 289 290 290 293 289 285 285 288 287 288 285 281 274 274 273 269 267 271 277 279 281 283 283 282 287 292 295 297 296 293 292 292 292 293 294 290 287 286 287 289 289 289 290 290 292 293 295 298 298 298 297 296 294 293 293 294 293 292 291 292 291 290 289 287 287 287 288 287 286 285 284 283 283 282 282 282 282 281 281 281 281 281 280
278 280 285 289 288 291 294 295 293 288 288 290 287 290 285 280 275 272 273 276 278 275 276 278 278 277 278 284 287 291 291 288 287 287 287 287 289 287 285 284 285 286 287 288 289 290 290 292 293 294 297 297 298 297 296 294 293 292 292 292 292 291 291 290 289 288 288 287 287 287 286 285 284 284 283 283 283 282 281 281 281 281 281 281 280 280
284 284 283 291 288 293 293 291 290 288 288 285 285 285 280 285 282 281 274 272 270 271 272 273 280 280 284 285 287 287 287 289 287 285 285 287 286 284 284 286 287 287 288 288 288 289 290 291 292 293 295 296 297 297 296 294 293 292 292 292 292 291 290 290 289 288 287 286 285 285 284 284 283 283 283 282 282 282 282 281 281 281 280 280 280 280
282 281 285 287 288 290 292 289 291 290 286 285 286 284 285 284 287 276 274 275 273 272 280 275 280 283 284 289 292 294 292 292 289 289 288 289 288 284 286 286 286 287 287 288 288 289 289 290 291 293 294 295 295 296 295 294 293 292 292 291 292 291 290 289 288 287 286 285 284 283 283 283 282 282 282 282 281 281 281 281 280 281 280 280 280 280
284 282 286 286 288 288 287 287 287 287 288 286 282 285 286 285 286 283 278 272 270 274 278 277 280 282 279 284 282 286 286 290 290 292 291 288 286 285 288 287 287 287 287 288 288 288 289 290 291 292 293 294 295 295 295 294 293 292 291 291 292 290 288 287 287 285 284 283 283 282 282 282 282 282 282 282 281 281 281 280 280 279 279 279 280 280
290 284 284 284 285 287 286 290 289 288 288 287 284 287 289 282 280 280 276 277 271 274 276 275 276 280 284 286 285 286 285 288 290 287 285 288 285 286 287 286 285 285 285 287 287 287 288 289 290 291 292 293 294 293 293 294 293 292 290 290 291 290 289 288 287 284 283 283 283 283 282 282 281 281 281 281 281 281 280 280 279 279 279 279 279 280
290 285 283 285 285 287 287 289 285 285 289 287 288 288 285 284 276 278 283 275 277 272 268 278 273 283 285 285 287 291 290 290 290 289 289 289 287 286 286 286 286 285 286 287 287 288 288 289 290 291 291 291 292 291 291 292 292 292 291 289 289 289 288 286 285 284 283 283 283 282 281 281 281 281 281 281 280 280 280 280 279 279 279 279 279 279
288 287 281 283 285 286 285 286 287 288 286 285 285 284 286 283 283 281 279 278 278 268 268 271 279 285 283 287 288 292 292 292 291 292 292 291 287 285 286 287 286 286 286 287 287 287 288 288 289 289 290 290 289 289 289 290 290 291 290 289 288 287 285 285 285 284 283 282 282 282 281 281 281 280 280 280 280 280 279 279 279 279 279 279 279 278
286 285 284 282 282 284 284 283 287 290 293 290 290 287 289 284 281 278 279 280 272 276 279 269 280 287 285 284 291 290 292 291 290 292 291 289 287 285 286 286 286 286 286 286 287 287 287 287 288 287 287 287 287 287 287 288 289 289 289 289 288 287 285 285 284 284 283 282 282 282 281 281 281 280 280 280 280 279 279 279 279 279 278 278 278 278
293 285 284 281 283 286 285 287 284 285 286 286 286 285 288 288 285 280 277 279 275 280 276 275 271 285 288 286 288 289 288 288 287 286 289 289 285 284 285 286 285 286 287 287 287 287 287 287 287 287 287 287 287 288 287 286 288 288 288 287 287 286 285 286 284 283 283 282 282 281 281 281 280 280 280 280 279 279 279 278 278 278 278 278 278 278
294 287 285 284 283 282 285 285 284 283 287 287 285 282 286 288 288 288 286 283 284 277 277 275 273 286 286 283 282 283 282 281 282 283 287 287 286 286 285 285 285 285 285 284 285 285 286 286 285 286 286 286 287 287 286 287 287 287 287 287 286 285 285 285 284 283 282 282 281 281 281 280 280 280 279 279 279 278 278 278 278 278 278 278 278 277
289 288 289 284 279 282 283 286 285 286 285 282 282 286 290 291 289 283 283 281 280 282 284 281 279 286 287 282 281 283 283 284 285 285 284 286 287 285 285 285 285 285 284 284 284 285 284 284 284 286 286 287 287 287 286 286 286 286 286 286 286 286 286 286 285 284 283 282 281 280 280 280 280 280 279 279 278 278 278 278 278 278 278 278 277 277
292 289 289 284 282 280 279 280 282 282 285 285 282 288 287 289 288 286 285 284 283 287 284 283 284 290 286 285 288 285 284 285 285 285 284 285 286 285 284 285 285 285 285 284 284 284 284 285 285 285 286 286 286 287 286 286 286 286 286 286 286 286 285 285 285 284 283 282 281 281 280 281 281 280 280 279 279 278 279 279 279 279 279 278 278 278
288 291 291 290 288 286 288 288 286 288 284 283 286 287 287 289 290 290 289 286 284 286 283 287 289 290 288 287 287 287 285 287 289 287 288 288 286 285 284 284 285 285 285 284 285 285 283 284 284 285 286 287 287 286 286 285 285 285 285 285 286 286 286 285 285 284 284 283 282 281 281 281 281 281 281 280 279 279 279 279 279 279 279 279 278 277
285 288 291 291 291 292 292 292 287 291 287 288 288 287 289 288 288 288 287 286 289 284 283 289 290 288 291 291 287 288 287 286 287 287 288 285 286 286 285 283 286 283 283 283 284 284 284 285 285 285 285 286 286 286 286 286 286 286 285 285 285 286 286 285 285 284 284 283 282 281 281 281 281 280 280 279 279 280 280 279 279 279 278 278 278 277
288 289 290 290 290 293 293 292 288 289 290 290 289 289 287 288 287 286 288 291 290 286 285 291 290 288 291 294 293 290 291 291 291 292 290 287 285 283 282 283 283 283 284 284 285 285 285 285 285 284 285 285 286 286 286 286 285 285 285 285 285 285 285 285 285 284 284 284 283 282 281 281 281 281 279 279 279 278 279 279 278 277 277 278 278 278
290 289 290 291 289 291 291 292 289 289 289 288 288 289 289 288 288 289 289 291 290 289 291 292 289 289 294 295 295 293 292 292 292 288 285 286 285 284 283 283 284 284 284 284 285 285 285 285 285 284 285 285 285 285 285 285 285 285 285 284 284 284 284 284 284 284 284 283 283 283 282 282 282 281 279 279 279 278 279 279 278 278 278 279 279 279
291 289 294 289 288 288 290 291 288 287 288 287 287 288 289 289 289 289 290 290 290 290 292 291 290 289 295 291 291 294 295 294 292 290 293 292 289 286 286 285 286 285 285 285 285 285 285 284 284 284 284 284 284 285 285 286 285 285 285 284 283 283 283 284 284 284 284 284 283 282 282 281 281 280 280 280 280 280 280 279 279 279 279 279 278 278
290 286 286 288 287 287 289 289 288 286 284 285 286 286 287 287 286 288 287 290 289 288 289 289 288 289 293 294 292 292 291 293 294 295 293 290 289 288 287 288 287 286 286 286 285 284 284 284 284 284 284 284 284 284 285 285 285 285 285 285 283 283 282 283 283 283 283 283 283 282 282 282 282 281 281 281 280 280 280 280 279 279 279 278 278 278
289 289 288 288 285 286 289 289 287 283 283 283 285 288 289 289 290 290 291 291 291 292 288 287 288 294 294 287 290 288 291 293 294 293 291 290 288 287 288 288 288 288 288 286 284 284 284 285 284 284 284 284 284 284 285 286 285 285 285 284 284 283 282 283 283 283 283 283 283 283 283 283 282 282 282 282 281 281 280 280 279 279 278 278 278 278
289 289 289 290 285 286 289 288 286 283 278 280 293 295 294 290 289 287 288 290 291 292 291 294 295 296 295 288 291 290 289 292 294 294 293 293 290 287 286 287 288 289 287 285 285 285 285 285 285 285 284 284 285 285 285 285 286 286 285 284 283 282 282 283 283 283 283 284 284 284 283 283 283 282 282 282 282 281 280 279 279 279 279 279 278 277
288 289 289 290 286 285 287 285 282 277 280 291 290 291 296 296 294 291 292 292 292 292 293 292 293 294 294 292 294 295 294 292 289 291 290 289 291 291 289 288 288 288 287 285 284 285 285 285 285 284 284 284 284 284 284 284 285 284 284 284 283 283 282 283 283 284 284 284 284 283 283 283 282 282 282 282 282 281 280 280 279 279 279 278 278 277
288 288 288 287 287 284 283 284 278 280 287 287 287 286 285 292 294 292 290 291 292 292 293 292 294 295 296 294 291 289 289 287 286 285 286 287 288 291 290 290 290 288 287 287 286 285 285 285 285 284 284 284 284 283 284 284 284 284 284 284 284 283 283 283 283 284 284 284 283 283 283 283 282 282 282 282 281 280 280 279 279 279 279 278 278 278
292 289 289 285 288 282 284 284 284 288 287 288 287 288 288 289 288 289 286 289 293 293 293 293 294 295 295 295 291 285 283 286 286 288 283 286 288 288 290 290 289 288 288 286 286 287 287 286 286 285 284 284 284 284 284 284 284 284 283 283 283 283 283 283 283 283 284 284 284 283 283 283 283 282 282 281 280 279 279 279 279 279 279 278 278 278
294 289 289 286 284 287 284 283 283 282 280 286 292 285 290 292 293 294 291 290 294 294 295 293 293 294 294 294 290 284 285 287 289 291 289 288 288 286 285 286 285 286 287 287 286 285 285 284 284 284 285 284 284 284 283 283 284 283 283 283 282 282 282 282 283 284 284 284 284 284 284 283 283 282 281 280 279 279 280 279 279 279 279 278 278 277
291 293 290 288 286 285 283 282 282 280 284 291 287 288 291 291 292 290 289 286 294 292 292 293 292 293 294 294 291 287 288 286 289 293 290 291 286 287 288 287 286 286 286 286 287 286 285 285 285 285 284 284 283 283 283 283 283 283 282 282 282 282 282 283 284 284 284 284 284 283 283 283 282 282 281 280 280 280 279 279 278 278 277 277 276 276
287 288 288 285 284 286 284 283 281 286 286 286 284 284 289 289 293 290 280 283 291 290 292 292 293 294 294 294 290 288 290 288 290 294 288 288 288 288 288 287 286 285 285 284 284 285 285 284 285 284 284 284 283 282 283 283 283 283 282 282 283 283 283 284 284 284 283 282 282 282 282 282 282 282 281 280 279 278 279 278 275 275 275 274 274 274
283 285 286 282 285 285 286 283 286 285 288 285 282 283 285 292 292 284 280 289 290 290 291 293 293 295 295 291 288 289 290 295 292 287 283 285 285 283 282 283 283 284 286 284 284 285 284 284 285 285 284 284 282 282 282 283 283 282 282 281 281 282 282 282 282 282 281 281 281 281 281 280 280 280 280 279 279 278 276 276 276 275 274 273 272 272
284 285 285 286 284 283 285 283 283 287 287 286 281 287 289 290 282 283 288 280 284 284 283 287 291 290 289 289 290 293 291 281 281 282 284 285 287 285 282 281 280 280 280 281 282 283 283 282 281 280 279 278 281 281 282 283 282 281 280 280 281 281 280 280 280 280 279 279 279 279 278 278 278 279 279 277 277 276 276 275 275 275 273 272 271 271
284 283 280 282 284 285 283 282 282 279 287 286 287 286 287 286 286 287 283 281 281 281 285 285 287 286 288 289 289 287 279 280 282 283 283 283 284 283 282 281 283 283 282 281 280 279 283 281 280 279 278 277 279 280 281 282 280 279 279 280 279 278 278 278 278 278 278 278 278 277 278 277 277 278 278 277 277 277 276 273 273 271 271 271 270 270
288 284 283 285 288 282 282 279 281 287 285 289 291 287 290 289 284 284 286 284 280 280 282 283 283 285 286 289 287 282 281 280 280 281 281 281 281 281 281 281 281 281 280 278 280 280 280 279 277 277 274 276 277 279 281 281 279 278 278 279 275 275 275 276 277 277 277 277 277 276 276 277 277 277 277 276 276 275 274 272 272 271 271 271 271 270
288 286 288 285 288 286 284 287 287 285 287 291 292 290 294 293 283 284 284 285 284 281 281 283 285 282 284 286 285 284 282 283 283 282 284 283 282 282 282 282 282 282 281 281 279 278 279 280 278 276 274 273 274 275 278 278 279 277 277 275 274 276 275 275 275 276 276 276 275 276 276 275 276 275 274 274 275 274 274 271 270 271 268 270 270 270
285 286 285 286 286 287 286 285 286 283 284 288 286 281 282 289 282 283 282 285 284 284 284 285 283 283 282 284 284 280 284 282 282 282 282 282 282 280 279 279 278 278 278 278 277 277 277 276 276 276 276 273 273 275 275 275 278 278 275 273 274 274 274 274 274 275 275 275 274 274 273 273 270 271 272 273 274 275 275 274 272 272 270 269 270 270
285 284 287 285 286 287 282 287 286 287 286 287 289 285 282 283 285 284 284 285 285 283 284 283 284 284 284 284 286 284 282 281 282 281 280 281 280 280 280 280 279 279 280 280 277 276 277 278 278 277 277 276 272 272 271 271 273 273 272 274 274 273 273 274 275 274 272 273 272 269 271 273 272 271 270 269 270 271 272 272 271 271 270 269 270 269
283 286 286 285 285 286 286 286 286 285 284 286 288 288 286 285 283 284 283 283 284 284 283 283 285 284 284 284 284 284 282 281 282 280 281 281 280 280 280 279 279 278 277 277 276 277 278 279 278 276 276 276 273 270 271 270 270 268 270 271 272 271 272 273 273 273 271 270 270 269 270 272 270 271 270 270 271 271 269 269 271 271 271 270 270 270
285 287 283 285 285 287 285 284 282 284 285 286 285 284 285 284 284 283 283 284 283 283 282 283 284 285 285 286 284 284 281 280 281 281 281 280 279 278 279 278 278 278 275 275 272 274 279 277 276 276 276 276 272 271 271 270 268 265 270 271 270 271 272 272 269 268 265 265 266 267 267 269 269 270 270 268 268 269 272 273 271 272 272 269 271 272
286 283 284 285 282 283 285 287 284 284 284 288 286 287 287 285 284 284 283 283 283 282 282 283 282 282 283 283 283 283 283 280 279 280 280 280 280 278 277 276 275 275 274 273 272 271 273 273 275 274 275 274 271 271 271 269 268 265 267 267 268 271 272 270 268 266 265 266 266 264 265 265 265 265 267 267 267 267 266 269 274 272 271 269 273 276
287 287 286 284 284 284 289 288 288 291 290 287 290 289 288 284 284 283 283 284 283 283 283 283 282 281 282 281 280 283 283 281 280 280 280 279 278 278 278 277 276 276 275 273 273 271 273 271 270 271 272 271 268 269 270 270 267 265 264 267 269 270 270 270 269 266 265 265 265 266 265 265 264 265 265 264 265 263 266 266 267 276 278 277 275 276
Wind_Speed
1 4 5 7 9 11 6 10 8 2 4 4 3 2 4 3 5 5 4 5 1 0 8 10 10 8 11 12 11 5 3 6 9 12 12 11 10 10 11 13 13 11 13 4 7 7 7 8 6 5 5 5 5 6 6 7 6 6 7 7 6 5 5 8 6 5 8 8 7 6 4 7 4 3 6 6 4 4 3 6 6 7 7 7 7 6
3 3 7 11 12 7 8 4 3 4 2 1 1 1 5 2 7 5 1 2 1 3 3 3 4 9 13 13 12 4 3 11 13 14 15 16 13 12 13 14 13 10 2 5 5 6 5 6 6 5 6 6 8 6 7 8 8 7 7 7 7 6 4 3 5 6 4 2 1 8 5 6 4 3 6 5 3 4 4 5 7 6 6 7 7 6
1 8 11 12 3 3 2 5 3 3 2 2 3 2 2 7 5 9 4 3 1 2 9 6 10 12 11 12 12 11 12 11 11 14 17 15 13 12 12 13 9 5 7 6 8 6 7 7 8 7 7 7 7 7 9 7 8 8 7 7 8 6 6 5 4 4 4 4 4 6 6 4 6 5 3 5 5 4 4 6 7 6 6 6 6 5
2 6 16 3 6 4 1 3 4 2 1 3 1 1 8 3 2 7 1 3 0 4 3 3 10 13 8 10 15 16 14 9 9 13 15 12 13 14 15 11 9 11 9 11 11 12 9 9 8 8 8 8 7 7 8 8 9 8 7 7 8 7 5 6 5 6 6 7 9 9 8 6 4 6 4 6 7 5 7 8 6 6 5 5 6 5
10 2 2 6 6 7 4 3 5 4 7 3 5 5 4 3 6 6 5 4 1 1 2 5 9 12 8 11 7 8 4 6 15 14 13 13 12 11 4 5 11 14 13 11 10 10 10 11 12 12 10 8 9 9 9 8 9 7 8 9 8 8 7 5 6 8 7 10 8 8 10 8 9 6 4 7 6 3 4 6 6 5 4 4 6 5
9 6 3 5 2 3 4 2 6 8 6 3 6 10 9 6 6 4 3 5 8 5 3 3 7 5 3 6 9 7 4 4 7 9 15 17 12 5 9 13 7 8 9 13 15 15 14 13 10 11 12 11 9 10 9 8 9 8 8 8 7 7 7 8 8 9 8 8 12 10 9 8 5 6 6 6 9 6 5 6 3 5 5 4 5 5
5 0 4 5 5 4 5 5 4 7 8 2 6 9 11 7 3 1 3 2 3 3 2 2 1 12 3 5 6 6 4 11 10 7 13 10 9 6 10 10 8 10 7 6 7 8 11 12 12 13 13 13 11 9 8 8 7 9 9 9 9 8 7 7 9 9 7 7 7 11 12 13 13 11 2 4 4 5 4 5 5 5 5 5 6 5
2 0 4 4 5 5 5 4 5 12 5 4 2 3 4 3 5 6 3 5 6 1 4 2 2 5 18 4 7 8 7 8 9 15 14 10 9 9 8 7 8 9 10 11 12 13 13 13 15 17 15 12 11 8 9 9 7 10 10 9 9 7 8 8 9 9 8 9 8 6 5 4 6 8 10 8 7 5 5 6 6 5 6 6 4 5
6 4 4 4 3 4 7 6 4 9 7 3 0 6 5 5 5 2 3 3 1 3 9 1 0 3 9 2 3 2 1 6 12 17 14 9 8 7 8 9 9 10 11 11 12 14 15 16 14 11 12 10 9 9 10 9 8 8 9 9 8 9 9 8 10 9 8 6 6 6 7 7 4 7 7 6 6 7 5 8 5 6 6 5 4 3
1 4 9 8 7 7 5 1 7 12 6 2 5 7 6 7 6 3 3 3 1 2 9 6 5 3 19 3 3 4 1 6 12 14 11 9 8 6 7 7 7 5 6 8 10 10 12 11 10 9 8 9 10 8 7 8 8 8 8 10 10 9 8 9 9 8 7 5 6 7 7 10 9 6 7 5 7 6 6 7 7 6 6 5 5 4
0 4 3 4 7 4 5 2 2 3 2 7 4 7 5 7 3 3 6 2 2 5 9 11 10 6 13 1 8 8 8 9 9 6 6 6 6 6 6 5 4 5 6 7 6 6 8 7 8 9 12 11 9 8 8 9 9 9 9 10 11 10 8 9 9 9 9 7 6 8 9 12 14 10 11 10 6 5 4 8 7 6 6 5 5 5
1 1 1 2 3 4 4 4 4 2 4 5 2 3 3 2 6 3 4 4 1 9 1 3 9 8 12 4 5 6 4 5 7 7 7 7 7 6 5 4 4 5 5 6 7 7 8 7 7 9 11 12 12 10 10 9 9 10 10 10 10 10 10 10 9 9 8 7 7 7 9 11 14 15 11 13 13 10 9 8 9 6 6 5 5 4
6 7 2 2 3 9 3 7 3 3 0 3 5 6 6 4 5 3 3 2 5 9 0 2 3 4 18 11 3 8 11 9 8 10 10 9 9 7 4 5 4 4 5 7 8 8 10 12 13 13 13 13 13 13 13 12 10 9 10 11 11 11 10 11 10 10 8 8 8 9 9 8 9 12 13 12 12 10 10 9 10 9 8 7 7 6
8 1 1 3 2 4 9 8 3 1 5 5 8 7 6 0 2 5 4 2 7 7 3 1 1 9 3 8 12 19 22 11 8 11 10 9 11 10 5 4 4 5 7 8 9 10 11 12 13 13 14 14 12 13 13 12 10 9 9 11 12 12 11 10 10 9 8 8 8 8 8 9 9 9 10 10 12 10 9 8 10 10 10 10 9 9
5 6 6 8 5 5 10 11 12 6 10 10 3 10 9 9 7 3 5 6 8 5 2 5 2 8 3 5 2 10 8 5 6 6 5 7 9 6 4 3 4 5 5 6 9 11 12 13 13 13 13 13 13 13 12 10 10 9 9 10 12 12 11 11 11 9 10 8 7 7 7 7 7 9 9 8 9 11 10 8 9 8 7 8 8 8
9 6 4 6 2 9 13 2 6 6 3 2 2 5 3 8 6 6 4 3 2 3 4 2 7 4 6 3 5 5 7 11 6 5 5 10 7 4 4 5 6 6 7 7 8 9 9 10 11 10 11 12 12 13 11 12 11 10 10 10 11 13 12 12 11 10 10 8 7 7 8 8 7 6 7 7 6 7 8 8 9 9 7 6 7 6
2 5 1 4 4 5 5 2 2 4 8 4 6 7 5 2 4 2 2 1 1 2 12 4 9 7 8 11 13 16 10 14 5 7 7 11 8 4 7 5 6 7 7 8 10 10 10 9 10 11 11 11 11 12 13 14 13 13 11 11 11 11 10 11 11 10 9 8 8 8 7 7 7 8 10 10 10 9 8 7 6 7 6 6 6 7
8 5 1 2 5 1 0 0 3 4 4 9 4 7 2 2 3 3 6 2 2 4 8 4 9 8 3 15 3 1 5 13 9 13 9 8 4 6 10 8 8 8 8 8 7 6 8 10 11 11 10 12 13 14 13 13 11 10 10 11 12 11 12 10 9 9 9 9 8 7 8 7 8 9 8 8 10 8 9 7 6 5 7 7 6 6
3 5 1 2 0 3 2 1 2 2 2 6 4 5 7 4 3 2 4 5 1 5 7 4 2 9 10 12 1 1 4 8 11 7 3 8 4 8 7 8 6 5 4 7 8 8 9 10 11 12 12 11 10 11 10 10 10 9 8 8 10 12 12 12 9 7 6 7 7 8 9 10 8 6 7 6 7 7 9 9 7 7 6 6 6 7
1 5 3 1 2 1 1 4 9 4 1 1 3 4 1 2 1 5 8 3 5 5 1 9 4 15 8 8 9 11 12 11 7 3 6 8 5 5 6 6 6 7 7 7 7 8 9 10 11 12 13 13 12 10 9 10 9 10 9 9 8 7 8 9 10 10 10 9 8 7 6 6 7 7 7 8 9 9 9 8 8 8 7 7 6 6
3 2 8 1 3 2 4 7 11 13 11 1 2 4 1 0 2 4 1 4 3 4 3 3 11 14 5 8 10 12 11 10 8 8 8 7 3 5 6 6 5 6 6 7 7 8 9 9 9 9 9 8 6 6 7 9 11 11 9 10 10 12 10 10 11 11 10 9 8 9 10 10 8 8 7 7 7 7 7 7 6 6 6 6 6 6
2 2 8 2 1 7 6 2 4 9 14 15 17 16 17 12 6 4 8 2 3 2 6 4 14 18 4 3 10 10 11 8 6 9 9 6 4 5 6 6 5 5 6 7 7 7 7 7 7 6 6 5 7 8 9 8 9 10 11 11 11 10 11 12 11 10 9 8 8 9 9 8 7 7 7 8 8 7 7 7 7 6 6 6 6 6
7 3 5 6 8 9 3 0 0 1 1 0 1 3 4 2 2 4 5 6 0 4 3 3 4 25 3 6 6 6 3 5 6 4 8 7 4 4 6 6 4 5 6 7 7 7 7 7 7 8 10 10 11 10 9 8 10 11 11 10 9 10 11 11 10 9 8 8 8 8 7 8 7 8 8 9 7 7 7 6 6 6 8 7 7 5
5 3 2 5 0 2 3 1 1 1 2 2 1 0 6 9 12 12 6 5 8 2 2 2 0 20 2 2 3 1 1 3 3 3 8 7 5 6 5 6 6 5 4 4 5 5 6 6 6 7 9 10 10 11 11 10 9 9 9 10 9 11 10 10 9 8 8 8 8 8 9 9 8 9 9 9 7 8 6 7 6 6 7 7 7 8
5 5 8 2 2 1 2 2 2 2 2 3 3 7 12 11 8 2 5 1 3 10 13 10 12 21 1 2 1 1 1 5 4 7 7 8 7 4 5 6 5 4 4 5 6 6 6 7 9 10 10 10 9 8 9 9 9 9 9 9 9 9 10 10 9 10 9 9 10 9 9 9 9 9 9 8 7 8 7 7 8 7 8 8 8 7
8 7 10 9 13 12 11 12 14 9 10 4 3 8 5 9 13 6 8 6 9 10 11 6 14 19 2 3 3 3 2 6 6 5 6 7 7 4 4 4 4 5 6 5 6 7 10 11 9 9 9 9 10 10 10 9 9 9 9 9 8 9 9 9 9 10 11 10 10 9 9 9 9 10 10 10 9 10 10 9 9 9 8 8 9 8
4 6 14 14 15 17 16 9 3 11 5 7 12 15 14 13 12 12 6 5 15 8 9 18 24 22 7 5 6 6 4 7 7 4 8 8 7 7 4 4 6 6 7 9 9 8 6 8 12 11 11 10 9 10 9 10 10 9 9 9 8 9 10 10 10 10 10 10 10 9 9 9 9 9 10 9 8 7 8 8 8 8 8 7 8 8
3 5 12 17 20 21 17 16 7 17 15 19 19 16 19 17 18 18 16 20 14 6 15 20 20 16 26 14 7 8 8 6 7 8 9 5 6 6 6 4 5 4 4 4 6 9 12 12 10 11 11 10 10 8 8 9 10 11 11 11 9 9 9 8 10 11 10 10 9 9 10 9 8 7 6 5 6 7 7 7 6 6 6 6 8 7
5 8 10 12 18 19 19 17 10 12 15 17 21 20 20 21 16 19 23 27 15 15 23 27 13 17 25 21 13 12 10 10 12 15 9 5 1 2 4 5 4 5 6 8 10 10 11 11 11 10 10 11 10 12 11 10 10 9 8 9 9 9 10 9 9 10 10 10 10 10 8 8 7 6 6 7 7 7 8 7 6 6 7 7 8 8
2 8 7 14 17 17 19 20 11 16 11 10 15 19 20 22 24 28 29 30 26 20 22 24 12 19 23 22 12 11 9 12 9 1 2 4 7 8 4 4 5 7 9 11 12 11 10 9 9 11 11 11 13 13 12 12 12 12 12 11 9 10 9 10 10 11 10 10 10 8 8 9 8 9 8 8 9 9 9 9 9 10 10 10 9 8
8 10 14 7 8 15 20 19 10 14 14 15 10 11 17 21 26 31 30 25 21 22 23 23 19 19 21 4 5 8 12 8 1 5 10 10 6 5 6 6 8 9 10 9 8 8 8 8 9 9 12 14 14 15 13 12 11 11 11 12 12 12 10 11 11 11 11 12 10 9 9 9 9 10 11 10 9 9 10 11 10 10 9 9 10 10
8 4 2 2 11 13 16 18 17 8 6 8 9 11 16 22 24 23 19 21 19 23 23 15 15 22 13 11 6 9 7 11 15 16 11 8 9 7 8 9 8 9 10 10 8 6 9 10 11 13 15 14 12 12 11 12 11 11 13 12 12 11 10 11 11 12 12 11 10 10 11 11 11 11 11 11 11 10 9 9 9 10 10 9 9 8
7 7 9 7 13 15 18 15 10 4 1 9 15 21 28 29 22 13 17 17 19 20 16 17 24 26 13 5 6 6 9 13 14 10 10 10 7 8 10 10 10 10 11 8 8 10 11 13 14 15 13 10 12 13 13 12 11 13 11 10 10 9 11 13 13 12 11 11 12 12 11 10 12 12 11 11 10 9 8 9 9 8 8 10 9 8
8 12 12 9 13 11 17 11 7 7 15 16 24 32 27 23 17 16 20 24 22 15 16 21 23 22 12 6 8 9 12 15 17 14 9 10 9 9 9 8 10 11 7 6 9 11 12 10 10 11 12 14 14 14 11 12 14 11 9 9 8 11 11 11 10 11 12 12 12 11 10 10 10 10 10 10 10 9 9 9 11 10 8 6 7 9
12 12 13 8 8 11 6 7 7 18 19 17 2 0 13 17 17 25 27 21 19 19 19 19 21 23 16 9 15 16 13 10 5 8 8 8 8 9 12 13 13 11 9 7 7 9 10 11 10 10 9 10 9 8 9 9 8 7 8 9 10 10 10 9 10 10 10 11 10 9 9 9 10 10 9 9 9 9 10 11 9 9 8 9 10 11
10 12 8 6 4 2 4 9 11 14 5 5 5 4 3 6 15 14 15 17 17 20 25 27 30 25 19 13 9 5 5 5 4 6 6 6 7 10 10 11 11 8 9 11 12 10 10 11 13 13 12 8 8 9 10 11 9 10 10 9 11 10 10 10 10 11 10 10 9 10 10 10 10 9 8 9 9 9 10 9 9 10 8 8 7 6
12 8 9 8 6 11 7 13 17 4 9 5 5 9 12 12 12 18 18 22 24 23 23 25 27 25 19 14 8 3 0 0 5 10 4 10 12 10 10 8 6 8 8 6 9 12 12 10 10 8 6 7 9 10 10 8 9 9 8 10 9 9 9 10 11 12 11 10 9 10 10 10 10 9 9 8 9 9 10 10 10 9 8 9 9 9
13 14 8 12 7 12 12 11 7 7 15 18 18 1 4 7 8 12 11 18 16 20 22 21 22 20 17 16 8 5 4 3 14 15 8 12 10 6 5 6 5 6 8 8 6 5 5 5 4 5 8 8 9 8 7 8 10 9 9 9 8 9 9 10 12 10 8 8 9 9 9 9 8 9 8 9 12 13 11 9 7 8 8 10 10 11
15 17 13 15 7 8 12 13 11 12 15 13 5 8 10 9 14 9 7 15 20 11 15 17 18 19 20 20 12 10 7 11 19 13 8 11 6 8 10 9 7 6 6 7 10 9 7 7 8 7 7 8 8 8 9 9 10 10 9 8 8 9 10 11 10 9 9 9 7 7 8 8 10 11 12 12 12 10 10 10 10 8 7 7 6 7
16 12 10 14 14 12 11 13 14 6 10 4 5 4 8 8 16 12 5 14 6 13 13 16 22 25 23 21 10 12 15 14 17 13 6 11 11 10 10 11 9 7 6 5 4 5 5 6 7 6 8 9 8 8 11 11 11 10 10 9 9 11 13 12 8 6 6 7 8 8 9 9 10 10 11 11 9 8 9 6 5 6 8 7 6 6
9 7 12 20 16 17 18 11 5 6 4 3 4 2 4 12 16 11 20 10 6 9 14 21 23 24 22 12 13 13 16 16 7 2 5 6 6 3 2 3 2 2 6 6 5 6 7 6 8 9 8 8 9 9 10 10 11 10 9 9 9 13 8 6 7 7 7 7 8 8 9 8 9 11 9 8 9 7 5 6 7 7 7 8 6 6
8 9 6 10 15 15 14 16 14 7 5 8 0 13 9 9 7 18 5 1 4 3 4 6 12 8 4 12 13 15 8 3 5 3 6 7 7 6 6 5 6 5 4 3 5 6 7 6 6 6 5 5 9 9 9 10 10 9 9 9 11 6 6 7 7 7 7 8 8 8 8 8 7 7 8 6 7 7 7 6 7 7 7 6 6 7
12 9 8 11 6 5 3 10 7 14 3 8 14 3 5 7 6 4 1 1 1 3 7 6 7 6 7 9 10 6 6 4 5 6 6 6 9 10 9 9 9 9 8 7 5 4 9 8 7 6 6 6 7 8 8 10 10 9 8 10 7 6 6 7 7 7 7 7 7 7 8 7 8 8 6 7 8 9 8 6 7 6 6 7 6 7
7 9 5 7 8 11 13 12 9 2 6 14 18 11 10 11 3 5 8 3 2 4 4 4 5 6 7 8 8 5 5 7 2 5 5 4 5 4 4 4 5 6 5 3 5 7 7 8 7 7 4 4 5 6 8 11 10 9 9 7 5 6 6 7 6 7 7 7 7 7 7 7 8 7 7 8 8 7 7 7 6 6 7 7 7 7
7 11 5 9 6 10 6 5 0 3 10 14 8 3 13 12 2 6 2 5 6 5 4 2 6 4 4 6 7 9 6 5 9 9 11 10 7 8 8 6 7 8 7 8 7 5 5 10 10 8 6 4 5 5 6 6 10 8 7 5 5 7 7 7 7 7 7 7 7 7 7 6 7 7 6 6 8 8 7 6 6 7 5 7 7 7
5 1 2 3 4 2 1 3 0 1 2 8 4 1 3 3 1 1 3 3 4 4 9 7 5 7 5 7 10 3 7 7 8 6 3 6 7 5 5 7 6 6 6 7 6 5 6 8 8 9 9 4 3 4 4 4 7 10 5 5 5 6 7 8 8 7 8 7 7 7 6 6 5 5 6 6 7 8 8 9 9 8 7 7 7 7
4 1 0 3 2 5 7 5 5 5 3 7 10 3 2 2 3 2 2 1 2 5 4 1 6 7 8 7 9 9 7 8 9 6 6 6 7 7 7 8 6 7 9 8 6 8 8 8 9 8 7 7 2 4 4 5 2 4 5 8 7 7 7 8 8 7 6 7 6 5 6 7 7 6 5 5 5 6 6 6 7 7 7 7 8 7
4 5 3 3 3 8 6 3 4 3 3 5 7 8 5 2 0 0 1 2 3 4 2 3 6 6 6 7 7 10 9 7 10 9 8 7 8 8 7 8 9 6 3 4 6 5 6 8 9 8 7 7 4 4 4 4 4 3 5 5 6 6 7 7 7 7 6 7 6 6 7 7 8 8 7 6 7 7 6 6 7 8 9 10 10 9
3 8 6 7 7 7 3 5 3 5 5 7 6 6 6 2 3 2 0 2 4 6 4 3 2 7 8 8 7 9 10 7 7 11 11 7 7 6 8 8 7 7 8 8 5 6 9 8 8 8 8 7 5 5 5 5 4 4 6 6 6 7 8 7 5 5 5 6 6 6 4 6 6 6 7 6 6 6 6 9 9 9 7 5 6 9
8 8 2 5 2 8 13 11 8 3 6 11 10 12 11 6 4 4 2 3 5 8 8 9 4 2 3 5 8 10 12 9 5 8 11 10 10 8 7 7 6 7 5 4 4 4 5 6 10 9 8 7 6 6 7 6 4 3 4 6 6 7 9 7 7 6 6 6 6 5 5 4 5 5 5 6 6 5 3 3 4 5 6 5 6 11
12 9 9 9 9 11 13 7 14 15 8 4 12 11 9 6 7 9 10 9 8 5 9 11 9 5 5 4 4 9 11 12 11 8 9 8 8 7 9 11 10 7 7 6 7 5 6 5 6 7 7 7 5 7 6 6 5 4 4 5 6 7 8 8 7 5 6 6 5 7 6 6 6 5 6 4 6 4 5 4 3 6 9 9 7 9
Wind_Direction
113 134 172 194 217 213 207 197 203 165 136 98 95 116 209 222 286 278 265 260 267 334 231 229 240 247 264 265 265 255 182 236 255 256 251 244 232 227 230 229 229 225 232 165 186 185 185 190 191 183 174 183 174 173 166 155 157 163 147 139 136 140 139 136 143 129 131 125 112 80 83 109 73 72 91 77 67 47 49 78 75 85 93 96 96 95
65 147 238 221 219 203 207 184 102 96 66 147 121 191 280 153 255 241 270 17 316 172 294 275 269 257 255 266 268 262 150 246 236 244 249 248 232 230 228 232 226 225 97 152 183 197 191 188 190 179 184 179 179 182 173 168 169 167 155 147 142 145 144 133 147 138 131 90 175 137 139 116 110 96 105 100 33 58 59 74 80 77 87 94 97 100
154 201 231 227 131 122 101 154 161 174 173 59 195 219 298 267 254 280 279 339 289 118 263 288 279 264 254 254 263 254 234 240 234 226 240 240 241 233 232 233 227 185 208 180 201 188 194 189 188 184 187 191 187 178 180 174 165 163 159 156 152 157 155 152 123 111 114 109 95 112 118 113 105 51 53 93 83 59 66 49 68 70 79 95 96 97
284 278 246 169 146 118 59 96 129 82 61 162 108 162 237 224 25 297 310 11 100 179 268 315 294 278 263 248 249 249 235 244 254 249 249 241 245 237 231 222 212 215 202 200 193 194 191 190 189 185 189 190 186 179 180 176 171 167 165 159 158 156 152 140 115 106 88 94 94 82 93 82 69 119 109 92 79 76 42 45 58 56 66 82 94 92
199 207 316 151 158 168 166 109 119 149 243 240 194 210 244 221 230 191 262 309 265 354 54 315 278 274 226 251 263 265 275 249 258 257 257 255 239 248 278 219 208 212 203 198 192 194 188 190 195 190 185 179 190 186 181 176 174 170 166 163 161 153 150 132 126 124 127 114 90 93 88 89 93 86 111 94 63 25 61 83 60 48 56 78 90 90
278 250 93 84 134 139 117 136 193 156 237 282 227 199 219 219 238 274 343 5 360 335 349 47 324 282 277 236 249 277 339 293 258 254 256 254 253 220 234 235 218 221 202 196 194 193 190 191 185 186 184 187 189 188 182 176 174 165 163 160 154 146 142 142 138 141 144 145 137 134 127 128 128 135 145 144 145 154 132 105 97 61 64 73 87 92
211 137 159 163 137 166 173 187 230 163 210 221 273 198 213 214 203 259 276 51 299 253 309 39 60 290 194 242 243 263 258 256 274 258 258 262 263 235 233 233 213 210 204 200 191 184 185 195 188 189 190 188 186 186 170 173 175 167 163 159 156 152 147 145 149 152 149 149 159 156 160 158 157 146 111 83 77 113 101 104 107 97 77 56 84 86
125 20 81 85 112 147 168 212 236 176 154 236 250 149 174 157 198 226 185 186 237 263 297 51 123 271 296 237 221 222 225 258 285 275 262 254 256 246 239 231 217 209 200 191 193 190 195 190 191 191 188 184 185 168 166 171 173 170 166 159 157 149 150 154 155 161 168 160 162 146 127 131 140 147 145 139 122 104 110 104 96 101 79 69 61 92
156 175 152 154 136 136 192 210 172 156 151 218 231 135 149 174 190 129 149 185 219 27 288 304 174 300 257 276 341 115 178 263 256 256 266 265 255 249 243 231 221 210 200 189 188 192 191 193 196 187 183 182 167 170 174 173 169 166 162 160 155 156 154 158 163 162 169 167 156 144 137 122 82 100 111 114 114 121 119 108 102 96 97 89 75 76
309 170 206 166 153 203 216 264 163 162 186 246 125 92 84 79 67 110 99 105 316 45 261 192 183 206 278 180 139 353 165 250 244 250 259 265 267 255 246 241 227 212 200 198 200 191 192 192 189 185 169 169 176 171 168 162 163 166 163 162 161 160 162 161 163 163 163 154 140 141 144 137 129 118 97 76 125 133 141 126 120 114 112 110 99 86
231 290 187 142 196 194 123 39 170 180 125 133 101 75 24 42 35 27 65 87 29 264 253 186 202 158 278 179 182 150 207 203 233 276 278 284 287 272 253 246 220 204 195 191 190 189 188 181 178 171 176 177 165 165 170 169 171 168 166 165 168 166 161 163 164 165 168 156 155 153 154 149 136 133 134 132 129 135 138 138 134 130 125 115 116 110
339 38 165 254 87 100 99 79 27 85 131 127 103 121 75 340 12 35 337 39 101 266 13 279 193 182 220 289 274 245 284 253 214 236 265 279 272 264 267 255 226 199 190 180 177 178 166 162 178 177 178 178 174 171 176 176 175 173 170 167 166 165 166 167 167 170 170 164 161 160 160 163 153 148 153 152 156 167 158 152 141 135 125 123 121 120
261 216 232 324 214 133 107 85 13 37 355 89 93 94 122 246 31 285 22 263 194 235 175 347 138 349 240 242 244 278 266 253 212 224 236 247 262 265 259 255 229 201 182 185 184 172 177 180 179 184 182 178 181 182 181 181 177 173 172 171 168 171 168 170 170 174 170 165 167 166 169 171 164 157 156 157 155 164 160 158 148 153 150 149 142 158
273 306 194 212 69 237 148 154 168 59 220 144 160 149 119 144 213 258 272 269 310 294 264 49 92 253 306 288 220 246 249 239 227 231 236 238 254 261 247 230 217 208 199 194 186 185 186 185 186 185 181 183 184 184 183 179 176 175 175 174 173 173 172 171 172 172 170 176 170 169 171 171 166 162 159 160 159 164 162 162 160 162 161 161 162 159
243 301 241 138 244 173 186 202 179 156 161 203 93 163 182 151 159 209 203 220 231 229 279 286 93 232 118 245 260 242 270 293 251 254 254 263 261 273 283 258 232 218 213 195 194 193 190 190 185 184 184 184 185 185 182 179 179 174 176 176 175 170 176 174 177 173 176 173 167 168 170 172 169 160 162 165 164 159 160 165 161 159 161 160 161 161
213 238 265 215 319 161 186 202 108 93 85 216 165 65 90 222 138 235 203 174 268 333 334 207 212 193 195 266 284 255 279 281 248 251 258 267 262 252 268 242 227 220 209 200 202 200 196 188 184 184 186 186 184 185 182 181 180 180 182 179 179 174 175 178 175 180 176 170 165 165 169 176 171 163 153 150 157 157 153 162 164 160 163 157 148 143
48 272 298 317 49 172 180 119 164 146 200 206 111 207 206 177 125 71 34 67 93 40 257 138 278 280 300 275 240 247 249 257 269 266 245 253 252 232 252 238 228 219 208 204 205 200 190 184 189 189 185 183 183 186 188 185 183 183 177 179 180 178 176 176 178 174 170 164 165 173 173 169 167 165 166 167 165 162 152 157 163 158 155 142 145 145
151 236 326 87 214 312 136 186 102 28 142 99 195 229 152 115 105 147 227 337 77 210 273 130 245 289 48 282 353 18 247 267 272 255 252 261 264 230 245 236 223 216 212 210 210 204 194 191 188 188 189 187 187 187 187 186 180 181 180 179 179 174 174 178 175 170 167 167 171 170 174 178 177 170 169 164 163 157 150 155 152 144 150 160 155 144
138 277 310 327 312 307 360 123 34 353 22 146 194 197 126 235 249 286 90 255 228 249 277 284 278 261 193 252 81 261 231 255 249 246 294 274 232 233 250 249 237 228 215 203 201 194 191 192 190 189 191 190 188 186 187 180 173 174 178 181 179 175 177 175 169 164 165 171 172 176 176 173 171 172 163 157 154 155 157 162 161 161 153 139 144 138
75 184 281 348 130 283 21 131 201 183 356 47 74 124 88 100 170 132 197 181 121 263 34 287 52 274 172 222 177 225 211 220 239 318 272 250 231 226 242 243 223 214 212 207 200 199 194 194 192 189 188 187 186 182 180 176 171 175 173 172 174 168 169 164 162 164 173 179 172 169 163 170 170 163 163 162 161 167 167 163 157 156 157 155 137 135
214 145 247 333 319 101 188 198 204 163 170 148 137 197 167 175 244 113 28 140 176 181 184 282 304 262 237 199 180 208 217 223 214 233 247 257 217 229 236 230 220 212 208 207 203 198 195 195 191 191 189 184 177 176 170 176 179 172 165 175 176 171 168 171 174 173 178 168 172 167 172 172 169 165 156 153 165 163 158 154 156 156 145 131 142 138
163 166 208 143 292 223 243 271 220 197 189 179 182 193 185 149 161 143 253 58 114 142 243 156 253 275 242 170 197 195 220 210 249 215 229 252 222 222 238 243 209 207 208 203 201 193 195 190 187 183 174 168 171 177 175 177 171 171 176 180 175 173 176 174 177 178 169 173 168 170 170 173 165 154 150 159 165 167 162 159 158 147 136 147 142 147
168 157 101 196 213 208 211 193 263 209 35 129 166 262 155 187 128 156 194 230 38 249 88 175 86 272 218 187 197 207 206 244 186 198 250 262 232 231 235 241 232 203 198 199 190 189 189 186 185 184 182 181 184 181 175 174 179 179 178 176 178 175 181 178 174 169 163 162 160 169 171 164 163 158 163 164 168 168 159 148 142 146 150 151 151 150
108 117 175 268 323 313 310 293 63 86 108 313 328 197 144 185 192 196 200 176 172 150 175 236 200 263 48 150 193 250 267 259 306 225 239 266 262 256 237 249 231 200 202 189 176 179 180 174 171 174 185 185 189 185 184 183 179 175 176 177 173 182 174 169 166 160 153 157 168 170 166 171 165 167 167 170 170 165 155 150 149 152 154 152 151 156
143 230 195 157 360 335 347 343 298 9 62 200 170 207 201 202 191 82 90 91 187 204 194 163 234 260 259 333 319 63 302 289 249 256 232 252 270 257 238 239 232 192 165 176 176 176 173 171 182 193 190 192 192 187 185 184 182 176 179 175 176 177 171 168 161 159 161 165 169 173 174 175 170 173 172 168 164 165 157 158 158 162 161 155 159 160
181 155 171 189 212 225 231 214 219 196 196 204 234 215 206 172 190 158 216 207 220 233 162 208 245 253 15 314 309 279 322 291 254 231 246 227 246 262 249 247 228 178 187 181 175 175 189 191 191 193 193 192 193 189 187 186 182 181 179 179 171 172 169 170 162 165 164 170 171 176 180 179 178 180 176 172 171 170 168 165 167 168 166 164 159 156
167 180 188 192 204 225 233 247 69 113 88 185 218 196 202 206 200 202 214 198 217 217 168 219 226 253 256 245 242 251 242 237 259 267 251 244 241 244 236 228 214 191 186 189 190 192 183 194 199 197 194 195 193 189 187 186 184 182 178 175 175 175 171 167 165 167 170 174 177 175 184 180 184 185 183 178 169 160 163 169 170 169 166 162 155 156
78 197 206 206 211 223 234 237 183 154 180 204 206 204 202 194 194 191 199 220 203 103 241 238 229 241 254 227 219 230 239 243 254 254 248 261 253 226 217 215 207 193 201 188 192 191 199 201 196 196 194 190 192 188 187 186 186 183 180 180 176 173 172 169 168 169 173 174 181 183 181 178 178 182 173 159 158 165 166 164 165 165 150 148 157 164
170 212 212 212 224 227 232 239 171 192 193 201 206 202 198 198 191 198 215 226 198 200 226 243 210 226 248 243 212 209 205 214 221 231 222 205 247 180 183 187 188 204 206 204 209 205 200 198 196 192 193 193 183 188 188 184 184 183 184 182 177 172 178 165 165 171 174 178 186 187 175 168 165 157 156 161 163 166 166 166 160 153 158 165 168 174
142 241 206 207 224 229 235 237 201 204 221 221 211 208 200 191 196 204 215 219 214 219 232 246 228 224 237 244 205 206 200 219 227 161 132 173 201 188 183 193 208 216 212 216 214 209 204 199 189 193 189 190 192 189 187 187 187 185 182 181 174 174 174 160 174 173 175 181 189 178 169 166 160 162 158 164 176 176 172 168 167 172 175 180 177 171
180 219 211 216 229 234 237 237 214 219 218 227 226 220 206 202 205 207 214 221 220 233 236 240 250 260 256 117 169 185 202 223 181 219 226 231 224 200 207 217 224 224 227 230 224 208 199 195 194 191 194 197 194 193 189 189 186 183 184 182 177 178 172 168 173 177 177 186 183 172 166 165 169 163 173 178 176 178 178 178 177 178 177 177 180 176
179 262 47 145 231 238 239 236 222 212 223 240 232 219 218 212 214 215 216 217 204 217 228 245 257 252 258 132 170 180 190 212 230 235 229 235 229 216 212 225 227 230 231 228 214 192 193 197 196 198 202 199 194 189 189 188 187 186 194 184 179 175 164 172 177 180 186 186 174 174 176 175 170 174 180 175 182 182 184 178 177 181 183 179 172 174
179 194 211 199 229 233 239 234 223 151 212 251 237 227 217 216 212 213 227 226 218 209 213 216 232 240 224 135 151 208 185 217 228 225 223 226 217 204 210 217 222 227 228 214 193 198 200 200 202 203 200 191 191 192 195 184 180 194 191 180 180 159 171 181 182 182 183 182 182 185 182 176 176 179 178 181 179 179 178 182 184 183 179 186 182 166
192 202 216 198 233 230 240 233 140 154 217 222 223 224 218 217 197 205 216 218 219 203 218 217 233 242 233 173 190 200 200 212 215 220 207 194 196 212 224 225 228 228 220 195 197 200 207 204 206 204 198 195 195 194 185 182 187 188 176 173 164 172 181 180 183 184 188 185 187 184 177 175 175 180 183 179 177 173 177 180 191 190 185 170 166 181
197 205 224 198 227 230 218 110 188 217 227 233 330 122 221 222 207 211 225 220 217 218 230 245 247 247 232 197 219 223 218 227 231 222 220 217 197 194 203 215 224 226 214 203 203 209 204 202 201 201 200 200 190 177 168 184 180 155 159 165 169 178 176 184 183 188 188 189 186 177 172 172 176 182 179 177 174 175 182 188 189 183 182 181 186 186
194 203 210 242 202 26 163 192 234 229 250 342 282 256 325 220 216 213 244 243 228 215 216 228 236 240 237 225 232 229 220 241 277 253 228 232 207 202 201 215 220 205 205 208 203 200 196 199 199 196 200 184 172 179 181 181 166 165 173 168 175 175 178 178 186 192 190 191 180 176 173 172 177 179 176 174 176 180 187 189 189 187 183 183 190 195
194 199 194 231 176 223 208 217 234 351 322 254 266 229 183 177 169 183 218 237 224 217 213 224 233 237 240 238 222 176 69 10 277 262 220 216 222 220 211 216 200 205 208 201 188 201 201 197 196 193 168 170 178 176 180 166 165 162 158 169 176 170 176 180 191 196 192 185 175 175 174 176 177 178 174 170 170 183 188 188 192 192 181 188 193 193
196 206 182 217 210 206 226 238 241 243 246 248 234 354 160 186 173 190 197 252 245 220 219 219 230 237 238 241 213 163 110 246 265 249 194 227 220 203 223 225 207 194 196 196 186 185 182 176 155 161 166 170 178 174 157 157 158 156 160 167 165 170 178 187 199 192 182 180 175 177 175 172 167 165 166 170 186 193 196 193 193 192 182 191 193 201
209 211 200 209 209 191 219 231 228 226 238 241 244 172 177 165 152 108 178 244 251 200 205 199 221 231 229 230 210 143 150 228 247 247 195 205 181 187 197 213 197 198 190 181 176 176 176 175 166 162 154 160 167 163 150 150 151 155 161 165 166 172 183 197 195 182 181 179 167 160 160 164 170 177 181 189 196 191 189 191 194 189 180 198 197 208
206 208 206 222 218 212 216 226 232 220 246 262 206 211 173 135 110 116 165 242 259 137 184 175 209 223 225 223 173 169 198 231 242 247 174 183 187 191 188 190 182 177 179 176 179 161 148 139 128 146 163 167 166 150 150 150 155 161 164 167 167 178 196 196 178 166 157 153 159 163 169 174 178 184 185 193 191 185 195 181 160 171 181 193 193 193
201 218 205 211 212 222 224 243 273 271 272 207 206 184 146 149 133 155 213 230 164 172 175 185 205 216 217 192 157 196 215 219 240 127 134 120 107 120 93 100 129 155 161 160 152 128 133 148 157 164 166 160 153 153 150 152 153 165 166 163 172 198 187 153 150 157 156 155 159 166 172 175 180 184 190 187 186 179 168 167 180 172 177 188 188 184
214 203 228 215 221 220 221 229 234 267 231 174 253 149 166 114 210 213 216 21 151 163 216 205 223 233 164 173 185 212 210 113 113 81 125 160 157 147 138 128 108 78 58 87 120 126 122 121 117 114 111 134 145 147 150 150 155 156 157 166 192 181 146 150 147 147 151 159 165 170 172 177 183 182 181 170 153 162 183 187 177 181 181 176 178 190
182 186 196 205 211 247 224 239 223 230 241 107 116 84 295 191 240 139 156 261 207 193 167 210 204 217 162 200 204 181 110 123 130 149 152 149 151 159 161 155 152 151 143 130 109 128 133 126 125 126 132 140 141 145 149 143 146 153 158 183 184 152 147 142 146 149 155 159 161 170 175 176 176 177 169 172 176 176 185 175 174 176 170 172 181 193
178 209 188 222 183 213 204 214 213 211 125 168 141 178 202 209 202 182 137 170 249 197 193 172 222 197 197 181 171 143 140 126 103 121 133 137 137 112 109 116 114 109 96 81 120 139 124 114 115 114 109 119 133 143 149 147 149 159 169 181 150 135 131 138 143 144 150 161 168 166 172 175 179 178 174 174 170 175 173 175 176 173 178 179 182 192
207 207 176 205 179 207 226 228 43 193 172 196 183 219 204 191 130 188 171 157 164 228 182 176 210 189 190 152 147 151 152 194 165 171 153 172 156 156 149 145 138 136 137 136 136 133 127 134 132 124 109 110 132 143 148 150 145 154 167 177 141 139 142 142 144 148 157 165 170 172 174 172 175 176 173 171 167 171 176 170 165 178 185 178 191 198
330 317 347 92 265 331 267 165 177 356 259 239 290 181 330 170 261 178 153 135 226 186 176 181 167 160 163 154 140 190 169 163 142 162 124 133 143 117 111 106 96 97 108 112 110 112 116 110 113 122 124 113 119 122 115 116 138 153 185 153 145 145 140 142 141 155 166 168 169 172 157 160 166 168 171 171 177 181 180 176 180 184 179 183 199 201
247 105 159 199 268 232 256 204 195 223 220 223 230 257 238 261 227 179 206 259 125 135 157 114 155 160 162 164 164 158 150 155 150 143 137 135 138 142 135 133 132 142 142 137 138 126 118 121 119 127 135 143 144 118 111 117 109 137 139 150 149 143 143 145 154 156 157 161 156 148 155 159 167 168 170 175 175 179 175 172 172 177 180 186 196 203
280 170 179 214 210 207 245 244 244 281 300 256 233 236 265 268 36 4 16 8 94 103 103 140 127 133 148 157 161 151 152 159 147 148 151 155 149 143 143 140 141 127 101 108 136 133 125 131 135 142 145 151 161 135 125 119 115 128 131 136 139 138 135 141 150 155 161 159 154 159 163 169 166 166 172 180 174 175 179 180 176 184 195 192 194 194
148 124 201 187 204 237 328 290 297 2 317 281 261 261 253 207 176 265 293 114 124 119 116 130 166 169 171 166 154 140 141 172 162 155 149 144 140 143 152 150 150 145 141 142 155 152 149 146 143 153 150 152 148 137 132 133 127 130 136 141 139 138 133 137 136 129 136 143 142 153 163 163 164 169 169 175 189 205 193 184 190 201 218 222 191 197
119 199 172 116 199 226 222 217 127 151 237 235 230 226 229 208 172 177 153 147 167 161 166 154 127 122 145 154 157 153 153 159 157 150 150 156 159 153 143 142 138 135 138 123 122 138 132 149 148 151 146 143 144 142 142 146 147 143 138 139 143 138 134 137 130 127 140 146 146 143 143 140 152 154 161 170 181 198 260 288 208 209 203 224 209 216
195 195 153 193 198 231 231 203 178 212 238 214 200 213 207 177 174 181 197 192 196 188 172 149 137 135 153 176 175 162 156 157 159 148 139 148 155 156 152 145 144 147 152 153 135 145 144 144 136 127 126 141 144 145 148 149 154 149 153 147 153 142 139 138 136 139 139 143 155 162 159 155 156 165 160 162 164 165 187 250 294 239 227 220 208 220